Weather History for Jackson Hawkins Field, MS

Change the Weather History Date:

Wednesday, February 20, 2013

  Actual Average (KJAN) Record (KJAN)
Temperature  
Mean Temperature 46 °F 51 °F  
Max Temperature 54 °F 62 °F 83 °F (1986)
Min Temperature 39 °F 40 °F 20 °F (1978)
Degree Days  
Heating Degree Days 18 14  
Month to date heating degree days 331  
Since 1 July heating degree days 1883  
Cooling Degree Days 0 0  
Month to date cooling degree days 0  
Year to date cooling degree days 4  
Moisture  
Dew Point 23 °F    
Average Humidity 44    
Maximum Humidity 68    
Minimum Humidity 25    
Precipitation  
Precipitation 0.00 in 0.17 in 1.89 in (1953)
Month to date precipitation 3.44  
Year to date precipitation 8.41  
Sea Level Pressure  
Sea Level Pressure 30.19 in    
Wind  
Wind Speed 5 mph (ENE)    
Max Wind Speed 10 mph    
Max Gust Speed 16 mph    
Visibility 10 miles    
Events      
T = Trace of Precipitation, MM = Missing Value Source: NWS Daily Summary

Daily Weather History Graph

Daily Weather History Graph

Search for Another Location

Airport:

Trip Planner

Search our weather history database for the weather conditions in past years. The results will help you decide how hot, cold, wet, or windy it might be!

Date:

Astronomy

Feb. 20, 2013 Rise Set
Actual Time 6:38 AM CST 5:51 PM CST
Civil Twilight 6:13 AM CST 6:16 PM CST
Nautical Twilight 5:44 AM CST 6:44 PM CST
Astronomical Twilight 5:16 AM CST 7:13 PM CST
Moon 1:22 PM CST (2/20) 2:48 AM CST (2/20)
Length of Visible Light 12h 03m
Length of Day
11h 13m
Waxing Gibbous, 76% of the Moon is Illuminated
Feb 20
Waxing Gibbous
Feb 25
Full
Mar 4
Last Quarter
Mar 11
New
Mar 19
First Quarter

Hourly Weather History & Observations

Time (CST) Temp. Windchill Dew Point Humidity Pressure Visibility Wind Dir Wind Speed Gust Speed Precip Events Conditions
12:53 AM 41.0 °F 38.0 °F 27.0 °F 57% 30.25 in 10.0 mi NE 4.6 mph - N/A   Clear
1:53 AM 41.0 °F - 26.1 °F 55% 30.26 in 10.0 mi Calm Calm - N/A   Clear
2:53 AM 39.0 °F 36.8 °F 28.9 °F 67% 30.23 in 10.0 mi ENE 3.5 mph - N/A   Clear
3:53 AM 39.0 °F 36.8 °F 28.0 °F 65% 30.19 in 10.0 mi NE 3.5 mph - N/A   Clear
4:53 AM 39.9 °F 37.8 °F 30.0 °F 68% 30.20 in 10.0 mi NE 3.5 mph - N/A   Clear
5:53 AM 42.1 °F - 28.0 °F 58% 30.24 in 10.0 mi Calm Calm - N/A   Clear
6:53 AM 42.1 °F - 27.0 °F 55% 30.23 in 10.0 mi Calm Calm - N/A   Clear
7:53 AM 43.0 °F 40.3 °F 27.0 °F 53% 30.26 in 10.0 mi NE 4.6 mph - N/A   Clear
8:53 AM 44.1 °F 39.5 °F 24.1 °F 45% 30.28 in 10.0 mi NE 8.1 mph - N/A   Clear
9:53 AM 44.1 °F 39.5 °F 21.9 °F 42% 30.28 in 10.0 mi ENE 8.1 mph - N/A   Clear
10:53 AM 45.0 °F 40.6 °F 19.9 °F 37% 30.27 in 10.0 mi ENE 8.1 mph - N/A   Mostly Cloudy
11:53 AM 46.0 °F 43.1 °F 19.9 °F 35% 30.23 in 10.0 mi East 5.8 mph - N/A   Mostly Cloudy
12:53 PM 50.0 °F - 19.9 °F 31% 30.19 in 10.0 mi NE 10.4 mph 16.1 mph N/A   Clear
1:53 PM 52.0 °F - 21.0 °F 30% 30.16 in 10.0 mi ENE 4.6 mph - N/A   Clear
3:53 PM 54.0 °F - 19.0 °F 25% 30.15 in 10.0 mi ENE 6.9 mph - N/A   Clear
4:53 PM 52.0 °F - 19.0 °F 27% 30.13 in 10.0 mi ENE 6.9 mph - N/A   Clear
5:53 PM 50.0 °F - 21.0 °F 32% 30.09 in 10.0 mi East 10.4 mph - N/A   Clear
6:53 PM 48.9 °F - 21.9 °F 35% 30.12 in 10.0 mi NE 4.6 mph - N/A   Overcast
7:53 PM 48.9 °F - 21.0 °F 33% 30.12 in 10.0 mi East 6.9 mph - N/A   Overcast
8:53 PM 46.9 °F - 21.0 °F 36% 30.12 in 10.0 mi East 5.8 mph - N/A   Mostly Cloudy
9:53 PM 46.9 °F - 21.9 °F 37% 30.11 in 10.0 mi East 8.1 mph - N/A   Overcast
10:53 PM 46.0 °F 41.4 °F 21.9 °F 39% 30.09 in 10.0 mi East 9.2 mph - N/A   Overcast
11:53 PM 45.0 °F 40.6 °F 21.9 °F 40% 30.08 in 10.0 mi East 8.1 mph - N/A   Overcast